TimeCDT,TemperatureF,Dew PointF,Humidity,Sea Level PressureIn,VisibilityMPH,Wind Direction,Wind SpeedMPH,Gust SpeedMPH,PrecipitationIn,Events,Conditions,WindDirDegrees,DateUTC
12:53 AM,23.0,18.0,81,30.35,10.0,Calm,Calm,-,N/A,,Clear,0,2014-03-09 06:53:00
1:53 AM,24.1,18.0,77,30.37,10.0,WNW,3.5,-,N/A,,Clear,290,2014-03-09 07:53:00
3:53 AM,24.1,18.0,77,30.35,10.0,Calm,Calm,-,N/A,,Clear,0,2014-03-09 08:53:00
4:53 AM,21.0,17.1,85,30.33,10.0,South,8.1,-,N/A,,Clear,170,2014-03-09 09:53:00
5:53 AM,21.9,17.1,82,30.33,10.0,Calm,Calm,-,N/A,,Clear,0,2014-03-09 10:53:00
6:53 AM,21.9,18.0,85,30.32,10.0,SW,3.5,-,N/A,,Clear,230,2014-03-09 11:53:00
7:53 AM,21.0,17.1,85,30.33,8.0,SW,3.5,-,N/A,,Clear,230,2014-03-09 12:53:00
8:53 AM,28.9,21.0,72,30.33,10.0,SW,4.6,-,N/A,,Partly Cloudy,230,2014-03-09 13:53:00
9:53 AM,37.9,23.0,55,30.31,10.0,SSW,11.5,-,N/A,,Partly Cloudy,200,2014-03-09 14:53:00
10:53 AM,44.1,23.0,43,30.32,10.0,SSW,12.7,-,N/A,,Partly Cloudy,210,2014-03-09 15:53:00
11:53 AM,48.9,25.0,39,30.28,10.0,SSW,15.0,-,N/A,,Partly Cloudy,200,2014-03-09 16:53:00
12:53 PM,54.0,27.0,35,30.25,10.0,SSW,13.8,-,N/A,,Partly Cloudy,200,2014-03-09 17:53:00
1:53 PM,57.9,28.9,33,30.22,10.0,SSW,13.8,-,N/A,,Partly Cloudy,210,2014-03-09 18:53:00
2:53 PM,59.0,28.9,32,30.18,10.0,South,17.3,25.3,N/A,,Partly Cloudy,190,2014-03-09 19:53:00
3:53 PM,61.0,28.9,30,30.13,10.0,SSW,19.6,26.5,N/A,,Clear,200,2014-03-09 20:53:00
4:53 PM,61.0,28.0,29,30.11,10.0,SSW,19.6,26.5,N/A,,Clear,200,2014-03-09 21:53:00
5:53 PM,61.0,28.0,29,30.07,10.0,SSW,18.4,-,N/A,,Clear,200,2014-03-09 22:53:00
6:53 PM,57.9,28.9,33,30.06,10.0,South,16.1,-,N/A,,Partly Cloudy,190,2014-03-09 23:53:00
7:53 PM,48.9,30.0,48,30.07,10.0,South,11.5,-,N/A,,Partly Cloudy,180,2014-03-10 00:53:00
8:53 PM,46.0,30.0,54,30.06,10.0,South,11.5,-,N/A,,Scattered Clouds,180,2014-03-10 01:53:00
9:53 PM,42.1,30.0,62,30.07,10.0,South,11.5,-,N/A,,Partly Cloudy,190,2014-03-10 02:53:00
10:53 PM,39.0,28.0,65,30.07,10.0,South,10.4,-,N/A,,Partly Cloudy,190,2014-03-10 03:53:00
11:53 PM,43.0,27.0,53,30.04,10.0,SSW,10.4,-,N/A,,Partly Cloudy,200,2014-03-10 04:53:00
12:53 AM,41.0,27.0,57,30.02,10.0,SW,8.1,-,N/A,,Partly Cloudy,220,2014-03-10 05:53:00